{"data":{"norad_id":47754,"intl_designator":"2021-017AJ","name":"STARLINK-2171","alt_names":[],"object_type":"PAYLOAD","status":"ACTIVE","operator":null,"country":"US","launch_date":"2021-03-04","launch_site_code":"AFETR","launch_vehicle":null,"mission":null,"orbit_class":"UNKNOWN","rcs_meters":null,"size_class":null,"mass_kg":null,"dimensions":null,"purposes":["comms"],"wikipedia_slug":null,"has_3d_model":false,"image_url":null,"decayed_at":null,"tle_current":{"epoch":"2026-06-08T07:38:01.020768Z","epoch_age_seconds":9027008,"freshness":"OLD","line1":"1 47754U 21017AJ  26159.31806737  .07209204  12230-4  70126-3 0  9991","line2":"2 47754  53.0209  69.0731 0008701 240.6169 119.4008 16.37430031292732","mean_motion":16.37430031,"eccentricity":0.0008701,"inclination_deg":53.0209,"raan_deg":69.0731,"arg_perigee_deg":240.6169,"mean_anomaly_deg":119.4008,"bstar":0.00070126,"rev_number":29273,"period_min":87.942689014967,"perigee_km":166.94808054996,"apogee_km":178.34775646514,"semimajor_km":6550.7849185075,"source":"CELESTRAK","updated_at":"2026-06-09T09:01:10.950975Z"}}}